Location: Long Geng
(2.6167°N, 114.1333°E)
Time: 00:23:50
(UTC+00:00)

Cosmos 2315 Rocket - Pass Details

Date: 14 May 2021
Orbit: 966 x 1002 km, 82.9° (Epoch: 12 June)

Event Time Altitude Azimuth Distance (km) Brightness Sun altitude
Exits shadow 12:15:58 58° 76° (ENE) 1,151 4.0 -26.4°
Drops below altitude 10° 12:21:48 10° 15° (NNE) 2,763 6.4 -27.7°
Sets 12:24:22 0° 11° (N) 3,712 7.2 -28.3°
